Wind_Speed
8 8 7 7 7 8 8 9 9 9 9 9 9 9 9 10 10 10 10 10 10 11 11 12 13 13 14 13 13 13 13 13 12 12 12 12 12 12 12 13 13 13 13
8 8 7 7 7 7 7 8 8 8 8 9 9 9 9 10 10 10 10 10 11 11 11 12 13 13 14 13 13 13 13 13 13 12 12 12 12 12 12 13 13 13 13
8 8 7 7 7 7 8 8 8 9 9 9 9 10 10 10 10 10 11 11 11 12 12 12 13 13 13 13 13 13 13 14 13 13 12 13 13 13 13 13 13 13 12
7 7 7 7 7 7 8 9 9 9 9 9 10 10 10 10 10 10 11 12 12 12 12 11 12 12 12 13 13 13 13 13 13 13 12 12 13 13 13 13 13 13 13
7 6 7 7 7 7 7 8 8 9 9 9 9 9 10 10 10 11 11 12 12 11 11 11 12 12 12 12 12 12 12 13 12 12 12 12 13 13 13 13 13 12 12
6 6 7 7 7 7 7 7 7 8 8 8 8 9 9 9 10 11 12 11 11 11 11 10 11 11 11 11 11 11 12 12 12 13 12 13 13 13 13 13 13 12 12
6 6 6 7 7 7 7 7 8 7 7 8 8 9 9 9 10 11 11 10 10 11 11 11 11 11 11 11 11 11 12 12 12 12 12 12 13 13 13 13 13 13 13
7 6 6 6 6 6 7 7 8 7 7 8 8 8 8 9 10 10 11 11 11 11 12 12 12 11 11 11 11 11 11 11 12 11 12 12 13 14 14 14 13 13 14
6 6 6 6 6 6 6 7 7 8 8 8 8 8 8 9 9 9 10 11 11 12 12 12 12 13 12 12 12 12 12 12 12 12 12 13 13 13 14 14 14 14 14
6 6 6 6 6 6 7 7 7 7 7 8 8 9 8 9 9 9 9 10 11 11 11 12 12 12 13 13 13 12 12 13 13 13 13 13 13 14 15 14 14 14 15
6 6 6 6 6 7 7 7 7 7 7 8 8 8 8 8 9 9 9 9 9 10 10 11 11 12 12 12 12 12 12 13 13 14 14 14 14 14 15 15 15 15 16
6 6 7 6 7 7 7 7 7 7 7 7 8 8 8 9 9 9 9 9 9 9 9 10 10 11 11 12 12 12 13 13 13 14 13 13 14 14 14 14 15 16 16
7 7 6 6 6 6 7 7 7 7 7 7 7 8 8 8 9 8 8 8 8 9 9 9 9 10 10 11 12 12 13 13 13 13 13 13 13 13 14 14 14 15 15
7 7 7 7 7 7 7 7 7 7 7 7 7 7 7 7 8 8 8 8 7 8 9 9 9 9 10 11 11 12 13 13 13 13 13 13 13 13 13 14 15 15 15
8 8 7 7 7 7 7 7 8 8 8 8 8 8 7 7 7 7 7 8 8 9 9 9 9 10 10 10 11 12 12 12 13 14 14 13 13 13 13 14 15 15 14
8 7 7 7 8 8 8 8 8 8 8 8 9 9 9 8 8 8 8 9 9 9 9 9 10 11 10 11 11 12 12 13 13 14 14 14 14 14 14 14 15 14 15
9 8 8 8 8 8 8 8 8 8 8 8 8 9 9 9 9 9 9 9 8 9 9 10 10 11 11 11 12 12 13 13 13 14 14 15 15 15 15 16 16 16 17
10 9 9 9 9 9 8 8 8 8 9 9 9 9 9 10 10 10 10 10 9 9 10 10 11 12 12 13 13 13 14 15 15 15 15 15 15 15 16 17 17 17 18
11 12 11 11 10 10 10 9 9 9 10 10 10 10 10 10 10 11 11 11 10 11 11 10 11 12 12 14 14 15 15 15 16 15 15 16 16 17 17 18 18 19 20
12 12 12 12 11 10 11 11 10 10 10 11 11 11 11 12 12 12 12 12 12 12 13 12 12 12 14 14 14 15 15 15 15 15 16 17 18 18 19 19 20 21 21
13 13 12 12 11 11 12 12 12 11 11 12 12 12 12 13 13 13 13 13 13 14 14 14 14 15 16 15 15 15 15 15 16 16 17 18 19 19 20 20 21 21 22
14 14 14 13 13 13 13 14 13 13 13 13 13 13 14 14 14 14 15 15 15 15 15 15 16 16 17 17 16 16 17 17 17 17 18 18 19 20 21 21 22 22 23
16 15 15 15 15 15 15 15 15 15 15 14 14 15 15 16 16 16 16 16 16 17 17 16 17 18 18 18 18 18 18 19 18 19 19 20 21 22 22 22 23 23 24
17 16 16 16 16 16 17 17 17 16 16 16 16 16 16 16 16 17 17 18 18 18 18 18 19 19 20 20 20 21 21 21 21 21 22 22 23 24 24 24 25 25 26
18 18 18 17 17 18 18 18 19 19 19 19 19 18 18 18 18 18 19 19 19 20 20 20 21 21 21 21 22 23 22 22 23 23 24 24 24 25 26 26 27 27 28
20 20 20 19 20 20 20 20 21 21 21 21 21 20 20 20 20 20 21 21 21 22 22 22 22 22 22 23 24 24 24 24 24 25 26 26 26 27 28 28 29 29 30
Wind_Direction
278 275 272 269 267 266 262 258 259 258 256 256 254 252 250 252 251 251 252 250 252 256 255 256 255 255 256 257 259 260 259 259 261 263 264 264 266 267 268 268 268 269 270
277 272 266 263 263 265 263 259 260 260 256 256 255 252 250 249 251 255 256 257 255 259 260 257 256 256 256 258 260 262 264 263 262 263 265 265 263 267 270 269 268 267 268
276 269 266 263 261 260 260 258 260 257 254 255 256 252 253 257 258 257 257 260 262 264 267 264 261 259 258 258 259 261 263 264 263 264 265 264 263 265 267 269 269 267 270
274 268 265 266 264 261 260 260 260 258 256 256 257 256 256 256 261 261 260 260 262 264 265 264 263 262 263 263 261 261 262 264 264 265 264 264 264 265 266 268 271 269 270
272 267 263 262 263 265 266 264 262 259 257 257 256 258 259 260 263 265 265 262 260 258 260 262 263 264 264 265 267 262 263 264 264 265 264 266 267 267 270 271 271 270 268
269 269 268 263 264 267 267 266 262 259 256 257 257 259 261 267 264 265 264 261 256 254 257 259 260 262 264 266 269 270 269 269 266 264 264 266 267 270 271 272 270 269 268
271 267 270 268 266 267 268 265 262 260 258 257 259 262 266 271 267 266 263 259 256 256 259 260 261 265 265 268 271 275 274 272 274 266 264 270 270 271 272 272 270 268 270
267 265 271 269 268 271 267 263 260 262 262 258 259 264 267 272 271 268 260 258 258 258 258 260 262 263 264 266 268 272 276 279 281 276 274 274 273 271 272 272 269 270 273
268 271 272 266 265 271 272 265 260 262 262 261 264 269 270 275 279 272 267 263 263 262 261 260 260 262 260 264 266 270 274 278 281 280 277 275 274 274 275 273 268 270 273
274 272 273 267 266 273 274 267 261 261 264 267 267 269 271 272 275 275 274 272 270 269 268 266 267 266 264 264 266 267 272 275 275 278 279 276 274 276 275 272 271 271 272
271 271 275 272 272 272 275 268 264 265 266 268 270 270 271 275 277 276 275 273 275 275 273 270 270 271 268 265 265 268 273 275 276 276 278 278 276 275 275 274 272 272 273
273 272 274 271 275 276 278 274 266 266 267 269 273 278 278 275 274 277 276 276 277 278 276 276 276 273 269 267 267 269 272 277 279 277 280 281 277 277 276 274 274 273 273
274 274 272 272 277 279 277 277 271 264 265 269 276 280 280 276 273 272 276 281 281 283 283 284 281 276 273 271 271 271 274 275 277 279 280 280 281 279 276 275 276 276 276
278 277 271 271 276 281 281 277 275 270 267 271 275 278 280 278 277 276 276 280 285 286 283 284 283 282 277 277 277 276 278 279 278 279 280 282 282 283 281 280 279 279 279
278 275 268 267 273 279 280 276 276 274 270 272 275 278 284 282 281 281 279 281 286 287 288 285 284 285 283 281 282 282 282 281 281 279 281 280 282 285 287 286 283 283 283
277 273 267 269 273 277 279 277 276 273 270 272 274 278 281 279 280 280 280 286 289 292 291 290 287 286 283 280 281 282 282 281 280 279 280 280 283 285 286 288 286 284 285
272 272 272 276 278 278 281 280 275 273 272 272 273 274 274 276 279 282 282 286 294 295 295 296 295 293 289 284 281 280 280 280 281 282 283 282 282 283 287 289 287 286 285
272 271 272 276 277 278 277 281 278 272 269 270 271 272 271 272 276 279 282 288 290 294 296 294 294 295 294 291 288 282 279 280 281 281 282 284 285 286 288 289 288 286 285
273 273 272 272 272 274 275 278 279 274 273 272 271 272 270 273 275 279 285 288 290 291 294 291 291 291 290 291 290 285 282 281 282 281 282 284 286 286 288 290 289 289 289
270 271 271 270 269 272 276 276 276 277 276 273 272 272 272 273 275 278 281 284 288 289 293 294 290 294 297 295 294 293 289 286 287 285 284 284 285 287 288 290 290 289 292
266 267 271 271 269 270 274 274 274 274 274 273 272 273 275 276 276 278 281 282 285 288 291 293 292 293 298 299 298 296 293 290 289 287 287 287 287 287 288 289 290 290 292
266 266 268 270 269 270 272 272 272 272 272 272 272 273 275 277 278 279 280 281 284 287 288 290 290 293 295 296 296 297 295 292 289 289 290 289 288 287 288 289 289 290 291
265 264 266 268 269 272 271 272 272 272 270 269 272 274 275 276 276 279 281 282 284 286 287 289 289 290 292 293 293 293 294 292 291 290 289 289 289 288 289 290 290 290 290
262 263 265 268 269 270 271 272 272 273 270 268 270 272 273 276 278 279 280 281 282 283 284 286 288 289 289 289 289 289 289 290 290 289 289 290 289 289 290 290 291 291 291
262 263 265 269 271 273 274 276 277 275 273 272 273 273 274 275 277 279 282 283 283 283 283 285 288 288 288 288 289 288 287 288 289 288 288 289 290 290 290 290 290 290 291
262 264 266 268 270 272 274 275 278 276 273 273 273 273 274 275 275 277 279 281 281 281 282 283 284 285 286 287 288 287 285 286 287 288 288 287 288 289 290 291 290 290 291
Height
5855 5855 5854 5854 5853 5853 5853 5853 5853 5853 5853 5853 5853 5853 5853 5853 5853 5854 5854 5854 5854 5854 5854 5854 5854 5854 5854 5854 5854 5854 5854 5854 5854 5854 5855 5854 5854 5854 5854 5854 5853 5853 5852
5853 5853 5852 5852 5851 5851 5851 5851 5851 5851 5851 5851 5851 5851 5851 5851 5851 5851 5851 5852 5852 5852 5852 5852 5852 5852 5852 5852 5852 5852 5851 5852 5852 5852 5852 5851 5851 5851 5851 5851 5851 5850 5850
5851 5851 5850 5850 5849 5849 5849 5849 5849 5849 5849 5849 5849 5849 5849 5849 5849 5849 5849 5849 5849 5849 5849 5849 5849 5849 5849 5849 5849 5849 5849 5849 5849 5849 5849 5848 5848 5848 5848 5848 5848 5847 5847
5849 5849 5848 5848 5848 5848 5847 5847 5847 5847 5847 5847 5847 5847 5847 5847 5847 5847 5847 5847 5847 5847 5846 5846 5846 5846 5846 5846 5846 5846 5846 5846 5846 5846 5845 5845 5845 5845 5845 5845 5845 5844 5844
5848 5847 5847 5846 5846 5846 5846 5845 5845 5845 5845 5845 5845 5845 5845 5845 5845 5844 5844 5844 5844 5844 5844 5844 5844 5844 5844 5843 5843 5843 5843 5843 5843 5843 5843 5843 5842 5842 5842 5842 5842 5841 5841
5846 5845 5845 5845 5844 5844 5844 5844 5843 5843 5843 5843 5843 5843 5843 5842 5842 5842 5842 5841 5841 5841 5841 5841 5841 5841 5841 5841 5840 5840 5840 5840 5840 5840 5840 5839 5839 5839 5839 5839 5838 5838 5838
5844 5844 5843 5843 5843 5843 5842 5842 5842 5842 5841 5841 5841 5841 5841 5840 5840 5840 5839 5839 5838 5838 5838 5838 5838 5838 5838 5838 5838 5838 5837 5837 5836 5836 5836 5836 5836 5836 5836 5835 5835 5835 5835
5843 5842 5842 5841 5841 5841 5841 5840 5840 5840 5839 5839 5839 5839 5839 5839 5837 5837 5837 5836 5836 5836 5836 5835 5835 5835 5835 5835 5835 5835 5835 5834 5834 5833 5833 5833 5833 5833 5832 5832 5832 5832 5831
5841 5841 5840 5840 5839 5839 5839 5838 5838 5838 5838 5838 5837 5837 5836 5836 5835 5835 5834 5834 5834 5833 5833 5833 5832 5832 5832 5833 5832 5832 5832 5832 5831 5830 5830 5830 5829 5829 5829 5828 5828 5828 5828
5839 5839 5839 5838 5838 5837 5837 5837 5836 5836 5836 5835 5835 5835 5834 5834 5833 5833 5832 5831 5831 5831 5830 5830 5829 5829 5829 5829 5829 5829 5829 5829 5828 5827 5827 5826 5826 5825 5825 5824 5824 5824 5824
5838 5837 5837 5837 5836 5836 5835 5835 5834 5834 5834 5833 5833 5832 5832 5832 5831 5831 5830 5829 5829 5828 5828 5827 5827 5826 5826 5826 5826 5826 5826 5826 5825 5824 5824 5823 5822 5821 5821 5820 5820 5820 5820
5836 5836 5835 5835 5834 5834 5833 5833 5832 5832 5832 5831 5831 5830 5830 5829 5829 5828 5828 5827 5826 5826 5825 5825 5824 5824 5823 5823 5823 5823 5823 5823 5822 5821 5820 5819 5818 5817 5817 5816 5816 5816 5815
5834 5834 5833 5833 5832 5832 5831 5831 5830 5830 5830 5829 5828 5828 5827 5827 5827 5826 5826 5825 5824 5823 5823 5822 5821 5821 5820 5820 5820 5820 5820 5819 5818 5818 5817 5816 5815 5814 5813 5812 5812 5811 5811
5832 5832 5831 5831 5830 5830 5829 5829 5828 5828 5827 5827 5826 5826 5825 5825 5824 5824 5823 5823 5822 5821 5820 5820 5819 5818 5817 5817 5817 5817 5816 5815 5815 5814 5813 5813 5811 5810 5809 5809 5808 5808 5807
5831 5830 5829 5829 5829 5828 5827 5827 5826 5826 5825 5825 5824 5824 5823 5822 5822 5821 5821 5821 5820 5819 5818 5817 5816 5815 5815 5814 5814 5813 5812 5812 5811 5810 5810 5809 5808 5807 5807 5806 5805 5804 5803
5828 5828 5827 5827 5826 5826 5825 5824 5824 5824 5823 5823 5822 5822 5821 5821 5820 5819 5819 5818 5818 5817 5816 5815 5814 5813 5812 5811 5810 5810 5809 5808 5807 5807 5806 5805 5805 5804 5803 5802 5801 5800 5800
5826 5825 5825 5825 5824 5824 5823 5822 5822 5821 5821 5821 5820 5820 5819 5819 5818 5817 5817 5816 5815 5814 5813 5812 5811 5810 5809 5808 5807 5806 5805 5805 5804 5803 5803 5802 5801 5800 5799 5798 5797 5796 5795
5823 5823 5822 5822 5821 5821 5820 5820 5819 5819 5819 5818 5818 5817 5817 5816 5816 5815 5815 5814 5813 5812 5811 5810 5808 5807 5806 5805 5803 5802 5802 5801 5800 5799 5799 5798 5797 5796 5795 5794 5793 5792 5790
5820 5820 5819 5819 5818 5818 5818 5817 5817 5816 5816 5815 5815 5815 5814 5814 5813 5812 5812 5811 5810 5809 5808 5807 5805 5804 5803 5801 5800 5798 5797 5797 5796 5795 5795 5794 5793 5792 5791 5789 5788 5787 5785
5817 5817 5816 5816 5815 5815 5815 5814 5814 5813 5813 5813 5812 5811 5811 5811 5810 5809 5809 5808 5807 5806 5805 5804 5802 5801 5800 5798 5796 5795 5793 5793 5792 5791 5790 5789 5788 5787 5786 5784 5783 5781 5779
5813 5813 5813 5812 5812 5812 5811 5811 5810 5810 5809 5809 5809 5808 5808 5807 5807 5806 5805 5804 5803 5802 5801 5800 5799 5797 5796 5794 5793 5791 5789 5788 5788 5787 5786 5785 5783 5782 5780 5779 5777 5775 5774
5809 5809 5809 5809 5808 5808 5808 5807 5807 5806 5806 5805 5805 5804 5804 5803 5802 5802 5801 5800 5799 5798 5797 5796 5795 5794 5792 5791 5789 5787 5786 5784 5783 5783 5781 5780 5778 5776 5775 5773 5771 5769 5767
5805 5805 5805 5804 5804 5804 5803 5803 5802 5802 5801 5801 5801 5800 5799 5799 5798 5797 5796 5796 5795 5794 5793 5792 5790 5789 5788 5786 5784 5783 5781 5780 5779 5777 5776 5774 5772 5771 5769 5767 5765 5763 5761
5799 5800 5800 5800 5799 5799 5799 5798 5798 5797 5797 5796 5796 5795 5795 5794 5793 5792 5791 5791 5790 5789 5788 5787 5785 5784 5783 5781 5780 5778 5776 5775 5773 5772 5770 5768 5767 5765 5762 5760 5758 5756 5754
5794 5794 5794 5794 5794 5794 5794 5793 5792 5792 5791 5791 5791 5790 5789 5789 5788 5787 5786 5785 5784 5783 5782 5781 5779 5778 5777 5775 5773 5772 5770 5769 5767 5765 5763 5762 5760 5758 5755 5753 5751 5748 5746
5788 5788 5789 5789 5788 5788 5788 5787 5786 5786 5785 5785 5784 5784 5783 5783 5782 5781 5780 5779 5778 5777 5776 5775 5773 5772 5770 5769 5767 5765 5763 5762 5760 5758 5756 5754 5752 5750 5748 5746 5743 5740 5738